EW1820 Weather Reports


Display with metric or nautical units.
time (UTC)temp
F
wind
direction
speed
MPH
gust
MPH
rain 1hr
in
rain 24hr
in
rain mn
in
humidity
%
barometer
mb
20260505002046 45 180 8.0 14.0 0.00 0.31 0.03 88 1008.8
20260505001553 45 209 10.0 14.0 0.00 0.31 0.03 89 1008.9
20260505001047 45 217 7.0 16.0 0.00 0.31 0.03 89 1008.8
20260505000545 45 214 8.0 16.0 0.00 0.31 0.03 88 1008.8
20260505000100 45 205 9.0 14.0 0.00 0.31 0.03 88 1008.8
20260504235547 45 192 8.0 14.0 0.00 0.51 0.03 88 1008.7
20260504235042 45 206 7.0 14.0 0.00 0.51 0.03 88 1008.5
20260504234553 45 207 8.0 15.0 0.00 0.51 0.03 88 1008.5
20260504234045 45 204 8.0 15.0 0.00 0.51 0.03 88 1008.4
20260504233543 45 223 8.0 13.0 0.00 0.51 0.03 87 1008.4
20260504233057 45 181 9.0 15.0 0.00 0.51 0.03 87 1008.1
20260504232544 45 198 8.0 16.0 0.00 0.51 0.03 87 1008.0
20260504232044 45 206 9.0 16.0 0.00 0.51 0.03 87 1008.0
20260504231556 45 197 7.0 13.0 0.00 0.51 0.03 88 1008.1
20260504231045 45 209 8.0 14.0 0.00 0.51 0.03 87 1008.0
20260504230545 45 223 8.0 14.0 0.00 0.51 0.03 87 1007.9
20260504230110 45 223 8.0 14.0 0.00 0.51 0.03 87 1007.8
20260504225548 46 209 8.0 14.0 0.00 0.70 0.03 87 1007.6
20260504225047 46 213 9.0 16.0 0.00 0.70 0.03 87 1007.6
20260504224607 46 215 10.0 17.0 0.00 0.70 0.03 87 1007.5
20260504224045 46 215 10.0 17.0 0.00 0.70 0.03 87 1007.4
20260504223544 46 189 9.0 15.0 0.00 0.70 0.03 86 1007.2
20260504223100 46 181 8.0 16.0 0.00 0.70 0.03 85 1007.1
20260504222544 47 217 9.0 16.0 0.00 0.70 0.03 84 1007.2
20260504222043 47 184 10.0 20.0 0.00 0.70 0.03 85 1006.9
20260504221549 47 213 8.0 20.0 0.00 0.70 0.03 85 1007.0
20260504221043 47 182 7.0 16.0 0.00 0.70 0.03 86 1006.8
20260504220541 47 182 8.0 16.0 0.00 0.70 0.03 85 1006.7
20260504220056 47 173 9.0 18.0 0.00 0.70 0.03 85 1006.7
20260504215544 47 192 9.0 19.0 0.00 0.74 0.03 85 1006.6
20260504215044 47 173 11.0 19.0 0.00 0.74 0.03 84 1006.7
20260504214551 48 160 10.0 20.0 0.00 0.74 0.03 83 1006.9
20260504214045 48 184 8.0 20.0 0.00 0.74 0.03 84 1006.7
20260504213545 48 196 10.0 19.0 0.00 0.74 0.03 83 1006.9
20260504213048 49 199 10.0 22.0 0.00 0.74 0.03 82 1006.8
20260504212545 49 155 10.0 22.0 0.00 0.74 0.03 81 1006.9
20260504212045 50 170 8.0 18.0 0.00 0.74 0.03 82 1006.8
20260504211557 49 169 10.0 18.0 0.00 0.74 0.03 83 1006.8
20260504211043 49 207 8.0 17.0 0.00 0.74 0.03 84 1006.8
20260504210543 49 182 9.0 16.0 0.00 0.74 0.03 84 1006.9
20260504210101 48 159 8.0 16.0 0.00 0.74 0.03 86 1006.9
20260504205544 47 176 8.0 17.0 0.00 0.74 0.03 86 1007.0
20260504205041 47 180 9.0 17.0 0.00 0.74 0.03 86 1007.2
20260504204554 47 185 8.0 16.0 0.00 0.74 0.03 86 1007.2
20260504204041 47 173 8.0 19.0 0.00 0.74 0.03 86 1007.2
20260504203541 47 180 8.0 19.0 0.00 0.74 0.03 86 1007.3
20260504203048 47 186 8.0 16.0 0.00 0.74 0.03 86 1007.3
20260504202541 47 163 7.0 15.0 0.00 0.74 0.03 86 1007.3
20260504202041 46 192 7.0 15.0 0.00 0.74 0.03 86 1007.3
20260504201551 46 180 8.0 15.0 0.00 0.74 0.03 86 1007.3
20260504201044 46 166 9.0 15.0 0.00 0.74 0.03 86 1007.3
20260504200542 47 184 8.0 16.0 0.00 0.74 0.03 85 1007.4
20260504200101 47 183 8.0 18.0 0.00 0.74 0.03 85 1007.4
20260504195544 47 195 7.0 18.0 0.00 0.79 0.03 85 1007.5
20260504195042 47 197 10.0 18.0 0.00 0.79 0.03 85 1007.4
20260504194550 47 209 9.0 20.0 0.00 0.79 0.03 85 1007.3
20260504194041 47 201 9.0 20.0 0.00 0.79 0.03 85 1007.4
20260504193543 48 180 10.0 19.0 0.00 0.79 0.03 84 1007.4
20260504193051 48 190 9.0 18.0 0.00 0.79 0.03 85 1007.4
20260504192545 47 219 10.0 20.0 0.00 0.79 0.03 85 1007.2
20260504192044 47 175 10.0 20.0 0.00 0.79 0.03 84 1007.3
20260504191605 48 175 12.0 25.0 0.00 0.79 0.03 81 1007.2
20260504191045 50 205 11.0 25.0 0.00 0.79 0.03 81 1007.0
20260504190547 50 163 14.0 25.0 0.00 0.79 0.03 80 1007.0
20260504190051 51 188 12.0 25.0 0.00 0.79 0.03 79 1006.9
20260504185542 51 167 12.0 25.0 0.00 0.90 0.03 80 1006.9
20260504185043 51 213 11.0 24.0 0.00 0.90 0.03 80 1006.8
20260504184552 50 177 13.0 23.0 0.00 0.90 0.03 80 1006.8
20260504184043 50 186 13.0 23.0 0.00 0.90 0.03 80 1006.8
20260504183544 51 169 10.0 23.0 0.00 0.90 0.03 80 1006.9
20260504183050 50 188 11.0 23.0 0.00 0.90 0.03 80 1007.0
20260504182541 50 163 13.0 23.0 0.00 0.90 0.03 80 1007.0
20260504182044 50 205 14.0 23.0 0.00 0.90 0.03 79 1007.1
20260504181553 50 181 11.0 25.0 0.00 0.90 0.03 81 1007.0
20260504181041 49 180 12.0 26.0 0.00 0.90 0.03 81 1006.9
20260504180542 49 207 13.0 26.0 0.00 0.90 0.03 80 1006.9
20260504180051 50 203 13.0 26.0 0.00 0.90 0.03 79 1007.0
20260504175543 50 182 14.0 24.0 0.00 1.06 0.03 79 1006.8
20260504175045 50 194 13.0 24.0 0.00 1.06 0.03 79 1006.9
20260504174555 51 144 11.0 22.0 0.00 1.06 0.03 79 1006.9
20260504174044 51 186 11.0 23.0 0.00 1.06 0.03 78 1006.8
20260504173545 51 179 11.0 23.0 0.00 1.06 0.03 78 1006.8
20260504173056 51 182 9.0 24.0 0.00 1.06 0.03 78 1007.0
20260504172548 51 190 11.0 25.0 0.00 1.06 0.03 80 1007.0
20260504172043 50 196 13.0 25.0 0.00 1.06 0.03 78 1007.1
20260504171600 50 215 11.0 20.0 0.00 1.06 0.03 79 1007.2
20260504171043 50 206 11.0 20.0 0.00 1.06 0.03 80 1007.2
20260504170544 50 198 12.0 21.0 0.00 1.06 0.03 80 1007.2
20260504151042 47 205 13.0 21.0 0.00 1.66 0.03 84 1008.2
20260504150542 47 204 13.0 19.0 0.00 1.66 0.03 84 1008.2
20260504141043 46 220 12.0 17.0 0.00 2.01 0.03 84 1008.2
20260504140543 46 231 11.0 17.0 0.00 2.01 0.03 85 1008.2
20260504130545 45 230 11.0 18.0 0.00 2.11 0.03 86 1008.2
20260504120129 45 232 13.0 20.0 0.00 2.16 0.03 82 1007.8
20260504110545 43 254 16.0 25.0 0.00 2.19 0.03 84 1007.0
20260504100545 42 230 13.0 23.0 0.00 2.21 0.03 84 1005.9
20260504081549 41 339 12.0 22.0 0.00 2.24 0.03 85 1003.8
20260504081042 41 290 10.0 19.0 0.00 2.24 0.03 85 1003.7
20260504080542 41 230 10.0 22.0 0.00 2.24 0.03 85 1003.7
20260504050542 42 244 15.0 27.0 0.00 2.24 0.03 93 1001.3
20260504045542 42 235 16.0 29.0 0.00 2.24 0.03 95 1001.1
20260504045041 42 252 16.0 29.0 0.00 2.24 0.03 96 1001.1
20260504044556 42 238 16.0 29.0 0.00 2.24 0.03 96 1001.1
20260504044045 42 215 14.0 25.0 0.00 2.24 0.03 96 1001.1
20260504043542 42 259 14.0 25.0 0.01 2.24 0.03 97 1001.0
20260504043110 42 300 14.0 27.0 0.00 2.23 0.02 97 1001.0
20260504042543 42 275 13.0 29.0 0.00 2.23 0.02 97 1001.0
20260504042046 42 355 13.0 30.0 0.01 2.23 0.02 98 1000.9
20260504041550 42 269 14.0 30.0 0.01 2.23 0.02 98 1000.9
20260504041042 42 196 16.0 28.0 0.02 2.23 0.02 98 1000.9
20260504040544 42 279 15.0 28.0 0.02 2.23 0.02 98 1000.9
20260504040057 42 218 16.0 28.0 0.02 2.23 0.02 98 1000.7
20260504035541 42 246 14.0 27.0 0.02 2.23 0.02 98 1000.8
20260504035042 42 233 13.0 25.0 0.02 2.23 0.02 98 1000.7
20260504034553 42 314 13.0 25.0 0.02 2.23 0.02 98 1000.6
20260504034042 41 311 10.0 23.0 0.02 2.22 0.01 98 1000.6
20260504033542 41 300 11.0 23.0 0.02 2.22 0.01 98 1000.6
20260504033059 41 211 12.0 27.0 0.02 2.22 0.01 98 1000.6
20260504032542 41 315 13.0 28.0 0.01 2.22 0.00 98 1000.5
20260504032043 41 284 15.0 28.0 0.02 2.22 0.00 98 1000.4
20260504031557 41 308 17.0 29.0 0.02 2.22 0.00 98 1000.3
20260504031044 41 255 18.0 29.0 0.01 2.21 0.00 99 1000.3
20260504030544 41 283 21.0 28.0 0.02 2.21 0.00 99 1000.1
20260504030109 41 263 16.0 31.0 0.02 2.21 0.00 99 1000.1
20260504025544 41 323 17.0 31.0 0.02 2.21 2.21 99 1000.0
20260504025042 41 266 17.0 30.0 0.03 2.21 2.21 99 999.8
20260504024550 41 274 18.0 30.0 0.03 2.21 2.21 99 999.8
20260504024044 41 252 16.0 26.0 0.02 2.20 2.20 99 999.7
20260504023542 41 307 16.0 28.0 0.03 2.20 2.20 99 999.6
20260504023053 41 267 18.0 30.0 0.03 2.20 2.20 99 999.5
20260504022543 41 301 20.0 30.0 0.03 2.20 2.20 99 999.5
20260504022047 41 262 18.0 30.0 0.03 2.19 2.19 99 999.4
20260504021551 41 286 19.0 29.0 0.03 2.19 2.19 99 999.3
20260504021046 41 317 19.0 30.0 0.03 2.19 2.19 99 999.3
20260504020544 41 286 19.0 32.0 0.04 2.18 2.18 99 999.3
20260504015544 41 304 19.0 32.0 0.06 2.18 2.18 99 999.0
20260504015044 41 276 18.0 30.0 0.06 2.18 2.18 99 999.0
20260504014604 41 306 20.0 30.0 0.07 2.18 2.18 99 999.0
20260504014043 41 290 21.0 30.0 0.09 2.18 2.18 99 998.8
20260504013547 41 302 21.0 32.0 0.10 2.17 2.17 99 998.8
20260504013057 41 302 20.0 32.0 0.12 2.17 2.17 99 998.6
20260504012543 41 290 21.0 32.0 0.14 2.17 2.17 99 998.5
20260504012043 41 254 21.0 32.0 0.14 2.16 2.16 99 998.5
20260504011553 41 313 22.0 30.0 0.16 2.15 2.15 99 998.4
20260504011046 41 286 21.0 30.0 0.18 2.14 2.14 99 998.2
20260504010546 41 295 20.0 31.0 0.18 2.14 2.14 99 998.2
20260504010058 41 282 20.0 31.0 0.19 2.13 2.13 99 998.1
20260504005544 41 245 19.0 30.0 0.21 2.12 2.12 99 998.1
20260504005044 41 279 18.0 30.0 0.21 2.11 2.11 99 997.9
20260504004636 41 270 19.0 26.0 0.22 2.10 2.10 99 997.8
20260504004043 41 287 15.0 26.0 0.22 2.08 2.08 99 997.7
20260504003543 41 299 16.0 30.0 0.22 2.06 2.06 99 997.6
20260504003053 41 294 20.0 30.0 0.22 2.04 2.04 99 997.5
20260504002544 41 250 18.0 30.0 0.22 2.03 2.03 99 997.4